星链-31759 (STARLINK-31759 )

导读 | 豆包AI

STARLINK-31759是美国太空探索技术公司SpaceX星链互联网星座的卫星,于2024年5月13日发射入轨,属于星链低轨星座建设中的组网卫星。星链星座通过部署大量低轨卫星,可为全球提供高速低延迟的互联网接入服务,STARLINK-31759的入轨进一步扩充了星链星座的覆盖范围与服务容量。

Basic Information
目录编号:
59740
目录名称:
STARLINK-31759
国际标识:
2024-090L
轨道中心:
EARTH
卫星名称:
星链-31759
卫星全名:
星链-31759 (STARLINK-31759 )
卫星状态:
在轨 (已飞行718 天)
发射日期:
2024-05-13 UTC
国别 :
美国 (US)
星等 :
--
Orbit Information
数据来源 国际轨道数据 AOE轨道数据
星历时间 2026-04-30T17:24:36+0800
17小时前
查看轨道信息
2026-04-30T08:00:00+0800
1天前
查看轨道信息
半长轴 6861.212km 6861.171km
偏心率 0.000115 0.0002204
轨道倾角 43.000° 43.001°
近地点辐角 278.039° 289.442°
升交点赤经 251.823° 254.040°
平近点角 82.034° 71.924°
近地点 482.285km 481.521km
远地点 483.865km 484.547km
周期 94.267分钟 94.266分钟
每日圈数 15.275715 15.275853
Detailed Information
固有亮度:
5
最大亮度:
1.5
卫星平台:
Starlink v2.0 mini
覆盖范围:
全球
运营商:
太空探索技术公司
运营商所在国:
美国
制造商(研发单位):
太空探索技术公司
制造商所在国:
美国
使用方式:
暂无
Satellite Introduction
星链(Starlink)计划是由太空探索技术公司(SpaceX)提出的一个巨型低轨卫星互联网星座项目,计划在2019年至2024年间在太空搭建由约1.2万颗卫星组成的“星链”网络,其中1584颗将部署在地球上空550千米处的近地轨道,并从2020年开始工作。该卫星仍在工作。
2D Orbit Map
3D Orbit Map
Orbit Altitude Analysis Chart
Orbit Inclination Analysis Chart
Orbit Comprehensive Analysis Chart
View Comprehensive Chart